Orbital Elements
Epoch 2012 Apr. 23.0 TT = JDT 2456040.5
T 2012 Apr. 12.75145 TT MPC
q 2.0566799 (2000.0) P Q
n 0.13505518 Peri. 349.63738 -0.03493375 -0.97593678
a 3.7623733 Node 102.11725 +0.93195342 -0.10958415
e 0.4533557 Incl. 12.71737 +0.36089121 +0.18851717
P 7.30
From 304 observations 1990 Oct. 24-2012 Jan. 20, mean residual 0".6.
|